TimeEDT,TemperatureF,Dew PointF,Humidity,Sea Level PressureIn,VisibilityMPH,Wind Direction,Wind SpeedMPH,Gust SpeedMPH,PrecipitationIn,Events,Conditions,WindDirDegrees,DateUTC
12:15 AM,71.6,69.4,93,30.01,10.0,Calm,Calm,-,N/A,,Scattered Clouds,0,2013-07-13 04:15:00
12:35 AM,71.6,69.4,93,30.02,10.0,Calm,Calm,-,N/A,,Overcast,0,2013-07-13 04:35:00
12:55 AM,71.6,69.4,93,30.02,10.0,Calm,Calm,-,N/A,,Overcast,0,2013-07-13 04:55:00
1:15 AM,71.6,69.3,92,30.02,10.0,Calm,Calm,-,N/A,,Mostly Cloudy,0,2013-07-13 05:15:00
1:35 AM,71.6,69.8,94,30.02,10.0,Calm,Calm,-,N/A,,Overcast,0,2013-07-13 05:35:00
1:55 AM,71.4,70.0,95,30.03,10.0,North,3.5,-,N/A,,Overcast,360,2013-07-13 05:55:00
2:15 AM,71.6,69.4,93,30.02,10.0,Calm,Calm,-,N/A,,Overcast,0,2013-07-13 06:15:00
2:35 AM,71.6,69.3,92,30.02,10.0,Calm,Calm,-,N/A,,Overcast,0,2013-07-13 06:35:00
2:55 AM,71.6,69.3,92,30.03,10.0,Calm,Calm,-,N/A,,Overcast,0,2013-07-13 06:55:00
3:15 AM,71.4,69.1,92,30.03,10.0,Calm,Calm,-,N/A,,Mostly Cloudy,0,2013-07-13 07:15:00
3:35 AM,71.2,69.1,93,30.03,10.0,Calm,Calm,-,N/A,,Overcast,0,2013-07-13 07:35:00
3:55 AM,71.1,68.9,93,30.03,7.0,Calm,Calm,-,N/A,,Overcast,0,2013-07-13 07:55:00
4:15 AM,70.9,69.1,94,30.03,7.0,Calm,Calm,-,N/A,,Overcast,0,2013-07-13 08:15:00
4:35 AM,70.7,69.4,96,30.03,5.0,Calm,Calm,-,N/A,,Overcast,0,2013-07-13 08:35:00
4:55 AM,70.7,69.8,97,30.03,5.0,Calm,Calm,-,N/A,,Overcast,0,2013-07-13 08:55:00
5:15 AM,70.7,69.6,96,30.03,5.0,Calm,Calm,-,N/A,,Mostly Cloudy,0,2013-07-13 09:15:00
5:35 AM,70.7,69.4,96,30.03,5.0,Calm,Calm,-,N/A,,Overcast,0,2013-07-13 09:35:00
5:55 AM,70.7,69.4,96,30.03,5.0,Calm,Calm,-,N/A,,Overcast,0,2013-07-13 09:55:00
6:15 AM,70.7,69.4,96,30.03,5.0,NNE,3.5,-,N/A,,Overcast,20,2013-07-13 10:15:00
6:35 AM,70.7,69.4,96,30.03,4.0,NNE,3.5,-,N/A,,Mostly Cloudy,20,2013-07-13 10:35:00
6:55 AM,70.7,69.4,96,30.04,4.0,NE,3.5,-,N/A,,Scattered Clouds,40,2013-07-13 10:55:00
7:15 AM,70.7,69.8,97,30.05,5.0,North,3.5,-,N/A,,Mostly Cloudy,10,2013-07-13 11:15:00
7:35 AM,71.2,69.8,95,30.06,5.0,NNW,3.5,-,N/A,,Overcast,340,2013-07-13 11:35:00
7:55 AM,71.6,69.4,93,30.06,5.0,NNE,3.5,-,N/A,,Overcast,20,2013-07-13 11:55:00
8:15 AM,71.6,69.3,92,30.07,7.0,Calm,Calm,-,N/A,,Overcast,0,2013-07-13 12:15:00
8:35 AM,72.0,69.4,92,30.07,7.0,NE,5.8,-,N/A,,Overcast,40,2013-07-13 12:35:00
8:55 AM,72.1,69.6,92,30.08,7.0,Calm,Calm,-,N/A,,Overcast,0,2013-07-13 12:55:00
9:15 AM,72.5,69.4,90,30.09,7.0,NNE,4.6,-,N/A,,Overcast,20,2013-07-13 13:15:00
9:35 AM,72.7,69.8,91,30.09,7.0,North,4.6,-,N/A,Rain,Light Rain,360,2013-07-13 13:35:00
9:55 AM,72.7,70.0,91,30.10,5.0,NNE,4.6,-,N/A,Rain,Light Rain,20,2013-07-13 13:55:00
10:15 AM,73.0,70.3,91,30.10,7.0,NNE,3.5,-,N/A,,Overcast,30,2013-07-13 14:15:00
10:35 AM,73.4,70.3,90,30.10,7.0,NNE,4.6,-,N/A,,Overcast,20,2013-07-13 14:35:00
10:55 AM,73.8,70.7,90,30.10,7.0,NE,4.6,-,N/A,Rain,Light Rain,50,2013-07-13 14:55:00
11:15 AM,74.1,70.7,89,30.10,10.0,NE,6.9,-,N/A,,Overcast,40,2013-07-13 15:15:00
11:35 AM,74.5,71.1,89,30.10,10.0,North,4.6,-,N/A,Rain,Light Rain,10,2013-07-13 15:35:00
11:55 AM,75.4,71.1,86,30.11,10.0,NNE,3.5,-,N/A,,Overcast,20,2013-07-13 15:55:00
12:15 PM,75.6,71.6,87,30.11,7.0,NE,6.9,-,N/A,Rain,Light Rain,40,2013-07-13 16:15:00
12:35 PM,76.8,71.8,84,30.10,10.0,North,5.8,-,N/A,,Mostly Cloudy,10,2013-07-13 16:35:00
12:55 PM,77.9,71.6,81,30.09,10.0,Calm,Calm,-,N/A,,Overcast,0,2013-07-13 16:55:00
1:15 PM,78.3,71.1,78,30.09,10.0,North,5.8,-,N/A,,Overcast,10,2013-07-13 17:15:00
1:35 PM,79.2,71.2,77,30.09,10.0,NNE,5.8,-,N/A,,Overcast,30,2013-07-13 17:35:00
1:55 PM,79.7,71.2,75,30.09,10.0,NE,4.6,-,N/A,,Overcast,50,2013-07-13 17:55:00
2:15 PM,80.2,71.8,75,30.08,10.0,North,6.9,-,N/A,,Overcast,10,2013-07-13 18:15:00
2:35 PM,80.8,71.6,73,30.08,10.0,NNE,6.9,-,N/A,,Mostly Cloudy,30,2013-07-13 18:35:00
2:55 PM,82.4,72.1,71,30.07,10.0,North,8.1,-,N/A,,Mostly Cloudy,10,2013-07-13 18:55:00
3:15 PM,82.4,72.7,72,30.06,10.0,NNE,8.1,-,N/A,,Mostly Cloudy,30,2013-07-13 19:15:00
3:35 PM,83.1,72.5,70,30.06,10.0,NNE,5.8,-,N/A,,Mostly Cloudy,30,2013-07-13 19:35:00
3:55 PM,83.7,72.7,69,30.05,10.0,NNE,4.6,-,N/A,,Mostly Cloudy,20,2013-07-13 19:55:00
4:15 PM,82.4,70.7,68,30.06,7.0,ENE,4.6,-,N/A,,Overcast,70,2013-07-13 20:15:00
4:35 PM,84.2,71.4,65,30.06,10.0,ENE,8.1,16.1,N/A,,Mostly Cloudy,60,2013-07-13 20:35:00
4:55 PM,84.0,71.1,65,30.05,10.0,NE,12.7,17.3,N/A,,Scattered Clouds,50,2013-07-13 20:55:00
5:15 PM,81.7,72.5,74,30.05,10.0,NE,11.5,17.3,N/A,,Mostly Cloudy,50,2013-07-13 21:15:00
5:35 PM,81.5,71.8,72,30.05,10.0,NE,9.2,-,N/A,,Mostly Cloudy,40,2013-07-13 21:35:00
5:55 PM,81.0,71.8,74,30.05,10.0,NE,12.7,17.3,N/A,,Mostly Cloudy,40,2013-07-13 21:55:00
6:15 PM,81.3,72.5,74,30.05,10.0,NE,10.4,-,N/A,,Mostly Cloudy,50,2013-07-13 22:15:00
6:35 PM,80.2,72.1,76,30.05,10.0,NE,4.6,-,N/A,,Mostly Cloudy,50,2013-07-13 22:35:00
6:55 PM,79.9,72.7,79,30.06,10.0,ENE,9.2,20.7,N/A,Rain,Light Rain,70,2013-07-13 22:55:00
7:15 PM,79.3,72.7,80,30.06,10.0,ENE,4.6,-,N/A,,Mostly Cloudy,70,2013-07-13 23:15:00
7:35 PM,79.0,72.7,81,30.07,10.0,ENE,5.8,-,N/A,,Overcast,60,2013-07-13 23:35:00
7:55 PM,78.3,72.5,82,30.08,10.0,East,3.5,-,N/A,,Overcast,90,2013-07-13 23:55:00
8:15 PM,77.9,72.7,84,30.08,10.0,NE,4.6,-,N/A,,Overcast,50,2013-07-14 00:15:00
8:35 PM,77.4,72.7,85,30.08,10.0,NNE,4.6,-,N/A,,Mostly Cloudy,20,2013-07-14 00:35:00
8:55 PM,76.6,72.9,88,30.08,10.0,Calm,Calm,-,N/A,Rain,Light Rain,0,2013-07-14 00:55:00
9:15 PM,76.3,73.4,91,30.08,10.0,Calm,Calm,-,N/A,Rain,Light Rain,0,2013-07-14 01:15:00
9:35 PM,75.7,73.4,92,30.08,10.0,Calm,Calm,-,0.01,Rain,Light Rain,0,2013-07-14 01:35:00
9:55 PM,75.6,73.4,93,30.09,4.0,Calm,Calm,-,0.02,Rain,Rain,0,2013-07-14 01:55:00
10:15 PM,75.2,73.6,95,30.10,10.0,East,4.6,-,0.01,,Overcast,80,2013-07-14 02:15:00
10:35 PM,75.4,73.9,95,30.10,10.0,East,6.9,-,0.01,,Overcast,100,2013-07-14 02:35:00
10:55 PM,75.4,72.7,91,30.10,10.0,ESE,10.4,-,0.01,,Mostly Cloudy,120,2013-07-14 02:55:00
11:15 PM,75.2,72.9,92,30.11,10.0,ESE,6.9,-,N/A,,Mostly Cloudy,110,2013-07-14 03:15:00
11:35 PM,75.4,73.4,94,30.11,7.0,ESE,5.8,-,N/A,Rain,Light Rain,110,2013-07-14 03:35:00
11:55 PM,75.4,73.4,94,30.12,10.0,ESE,5.8,-,0.01,,Overcast,110,2013-07-14 03:55:00